When you browse on this site, cookies collect data to enhance your experience and personalize the content and advertising you see.
Visit our Privacy Policy to learn more. By continuing to use the site, you agree to this use of cookies and data.
EN

Hourly Weather Abergavenny

Today, 13 July, Monday

Time Temperature Precipitation Wind Pressure Humidity
00:00 +11°C° 0 mm 1 mps 754 mmHg 78%
01:00 +12°C° 0 mm 1 mps 754 mmHg 77%
02:00 +12°C° 0 mm 1 mps 753 mmHg 76%
03:00 +13°C° 0 mm 2 mps 753 mmHg 74%
04:00 +13°C° 0 mm 2 mps 753 mmHg 77%
05:00 +13°C° 0 mm 2 mps 753 mmHg 79%
06:00 +14°C° 0 mm 2 mps 752 mmHg 82%
07:00 +14°C° 0 mm 3 mps 752 mmHg 79%
08:00 +14°C° 0 mm 4 mps 752 mmHg 76%
09:00 +15°C° 0 mm 5 mps 752 mmHg 73%
10:00 +15°C° 0 mm 5 mps 752 mmHg 75%
11:00 +16°C° 0 mm 5 mps 752 mmHg 77%
12:00 +16°C° 0 mm 5 mps 751 mmHg 79%
13:00 +15°C° 0.5 mm 5 mps 751 mmHg 84%
14:00 +15°C° 0.5 mm 5 mps 751 mmHg 89%
15:00 +14°C° 0.5 mm 4 mps 750 mmHg 95%
16:00 +14°C° 0.3 mm 4 mps 750 mmHg 95%
17:00 +14°C° 0.3 mm 4 mps 749 mmHg 96%
18:00 +14°C° 0.3 mm 3 mps 749 mmHg 97%
19:00 +14°C° 0.1 mm 3 mps 749 mmHg 97%
20:00 +15°C° 0.1 mm 2 mps 749 mmHg 97%
21:00 +15°C° 0.1 mm 2 mps 749 mmHg 97%
22:00 +15°C° 0 mm 2 mps 749 mmHg 97%
23:00 +15°C° 0 mm 2 mps 748 mmHg 96%

Tomorrow, 14 July, Tuesday

Time Temperature Precipitation Wind Pressure Humidity
00:00 +15°C° 0 mm 1 mps 748 mmHg 96%
01:00 +14°C° 0 mm 1 mps 748 mmHg 96%
02:00 +14°C° 0 mm 1 mps 748 mmHg 96%
03:00 +14°C° 0 mm 1 mps 748 mmHg 96%
04:00 +14°C° 0.1 mm 2 mps 748 mmHg 95%
05:00 +14°C° 0.1 mm 2 mps 748 mmHg 94%
06:00 +14°C° 0.1 mm 2 mps 748 mmHg 93%
07:00 +14°C° 0 mm 2 mps 748 mmHg 89%
08:00 +14°C° 0 mm 3 mps 748 mmHg 85%
09:00 +14°C° 0 mm 3 mps 748 mmHg 81%
10:00 +14°C° 0.1 mm 3 mps 748 mmHg 77%
11:00 +15°C° 0.1 mm 4 mps 748 mmHg 74%
12:00 +17°C° 0.1 mm 4 mps 748 mmHg 71%
13:00 +17°C° 0.1 mm 4 mps 748 mmHg 71%
14:00 +16°C° 0.1 mm 5 mps 748 mmHg 72%
15:00 +16°C° 0.1 mm 5 mps 748 mmHg 72%
16:00 +15°C° 0 mm 5 mps 747 mmHg 74%
17:00 +14°C° 0 mm 5 mps 747 mmHg 77%
18:00 +14°C° 0 mm 5 mps 747 mmHg 79%
19:00 +13°C° 0 mm 4 mps 747 mmHg 82%
20:00 +12°C° 0 mm 3 mps 747 mmHg 85%
21:00 +13°C° 0 mm 2 mps 747 mmHg 89%
22:00 +13°C° 0 mm 2 mps 747 mmHg 89%
23:00 +13°C° 0 mm 2 mps 747 mmHg 90%

Day after tomorrow, 15 July, Wednesday

Time Temperature Precipitation Wind Pressure Humidity
00:00 +13°C° 0 mm 2 mps 747 mmHg 91%
01:00 +13°C° 0 mm 2 mps 747 mmHg 91%
02:00 +13°C° 0 mm 2 mps 747 mmHg 91%
03:00 +13°C° 0 mm 2 mps 746 mmHg 92%
04:00 +13°C° 0 mm 2 mps 746 mmHg 92%
05:00 +13°C° 0 mm 2 mps 747 mmHg 92%
06:00 +13°C° 0 mm 2 mps 747 mmHg 93%
07:00 +14°C° 0 mm 2 mps 747 mmHg 91%
08:00 +13°C° 0 mm 3 mps 747 mmHg 90%
09:00 +14°C° 0 mm 3 mps 747 mmHg 88%
10:00 +14°C° 0 mm 3 mps 747 mmHg 88%
11:00 +14°C° 0 mm 3 mps 748 mmHg 87%
12:00 +14°C° 0 mm 3 mps 748 mmHg 86%
13:00 +16°C° 0 mm 3 mps 748 mmHg 85%
14:00 +16°C° 0 mm 3 mps 748 mmHg 83%
15:00 +17°C° 0 mm 4 mps 748 mmHg 82%
16:00 +17°C° 0 mm 4 mps 748 mmHg 82%
17:00 +17°C° 0 mm 4 mps 748 mmHg 83%
18:00 +17°C° 0 mm 4 mps 748 mmHg 83%
19:00 +16°C° 0 mm 3 mps 749 mmHg 87%
20:00 +15°C° 0 mm 2 mps 749 mmHg 90%
21:00 +14°C° 0 mm 2 mps 749 mmHg 93%
22:00 +14°C° 0 mm 2 mps 749 mmHg 93%
23:00 +14°C° 0 mm 2 mps 750 mmHg 93%

16 July, Thursday

Time Temperature Precipitation Wind Pressure Humidity
00:00 +14°C° 0 mm 2 mps 750 mmHg 93%
01:00 +13°C° 0 mm 2 mps 750 mmHg 93%
02:00 +13°C° 0 mm 2 mps 750 mmHg 94%
03:00 +13°C° 0 mm 2 mps 750 mmHg 94%
04:00 +13°C° 0 mm 2 mps 750 mmHg 93%
05:00 +14°C° 0 mm 2 mps 750 mmHg 93%
06:00 +14°C° 0 mm 2 mps 750 mmHg 92%
07:00 +16°C° 0 mm 2 mps 751 mmHg 87%
08:00 +17°C° 0 mm 3 mps 751 mmHg 83%
09:00 +18°C° 0 mm 3 mps 751 mmHg 78%
10:00 +19°C° 0 mm 3 mps 751 mmHg 78%
11:00 +19°C° 0 mm 3 mps 751 mmHg 78%
12:00 +19°C° 0 mm 3 mps 751 mmHg 77%
13:00 +19°C° 0 mm 3 mps 751 mmHg 77%
14:00 +20°C° 0 mm 3 mps 751 mmHg 76%
15:00 +20°C° 0 mm 3 mps 751 mmHg 76%
16:00 +20°C° 0 mm 3 mps 751 mmHg 78%
17:00 +20°C° 0 mm 2 mps 751 mmHg 81%
18:00 +20°C° 0 mm 2 mps 751 mmHg 83%
19:00 +19°C° 0 mm 2 mps 751 mmHg 86%
20:00 +17°C° 0 mm 2 mps 751 mmHg 88%
21:00 +16°C° 0 mm 1 mps 751 mmHg 91%
22:00 +16°C° 0 mm 1 mps 751 mmHg 91%
23:00 +15°C° 0 mm 1 mps 751 mmHg 92%

17 July, Friday

Time Temperature Precipitation Wind Pressure Humidity
00:00 +14°C° 0 mm 1 mps 751 mmHg 92%
01:00 +14°C° 0 mm 1 mps 751 mmHg 93%
02:00 +14°C° 0 mm 1 mps 751 mmHg 93%
03:00 +13°C° 0 mm 1 mps 751 mmHg 94%
04:00 +14°C° 0 mm 1 mps 751 mmHg 93%
05:00 +15°C° 0 mm 1 mps 751 mmHg 92%
06:00 +16°C° 0 mm 1 mps 751 mmHg 92%
07:00 +18°C° 0 mm 1 mps 751 mmHg 87%
08:00 +20°C° 0 mm 1 mps 752 mmHg 83%
09:00 +20°C° 0 mm 2 mps 752 mmHg 79%
10:00 +21°C° 0.1 mm 2 mps 752 mmHg 77%
11:00 +21°C° 0.1 mm 3 mps 752 mmHg 75%
12:00 +22°C° 0.1 mm 4 mps 752 mmHg 74%
13:00 +22°C° 0.1 mm 4 mps 752 mmHg 73%
14:00 +22°C° 0.1 mm 4 mps 751 mmHg 73%
15:00 +22°C° 0.1 mm 4 mps 751 mmHg 73%
16:00 +22°C° 0.1 mm 4 mps 751 mmHg 75%
17:00 +21°C° 0.1 mm 3 mps 751 mmHg 78%
18:00 +21°C° 0.1 mm 3 mps 751 mmHg 81%
19:00 +19°C° 0 mm 3 mps 751 mmHg 85%
20:00 +17°C° 0 mm 2 mps 751 mmHg 89%
21:00 +16°C° 0 mm 2 mps 751 mmHg 93%
22:00 +15°C° 0 mm 2 mps 751 mmHg 94%
23:00 +15°C° 0 mm 1 mps 750 mmHg 94%

18 July, Saturday

Time Temperature Precipitation Wind Pressure Humidity
00:00 +14°C° 0 mm 1 mps 750 mmHg 95%
01:00 +14°C° 0 mm 1 mps 750 mmHg 95%
02:00 +13°C° 0 mm 1 mps 750 mmHg 95%
03:00 +13°C° 0 mm 1 mps 749 mmHg 95%
04:00 +14°C° 0 mm 2 mps 749 mmHg 94%
05:00 +14°C° 0 mm 2 mps 749 mmHg 93%
06:00 +15°C° 0 mm 2 mps 749 mmHg 92%
07:00 +16°C° 0 mm 3 mps 748 mmHg 91%
08:00 +17°C° 0 mm 4 mps 748 mmHg 90%
09:00 +17°C° 0 mm 5 mps 748 mmHg 89%
10:00 +17°C° 0 mm 6 mps 748 mmHg 87%
11:00 +19°C° 0 mm 6 mps 748 mmHg 86%
12:00 +18°C° 0 mm 7 mps 748 mmHg 84%
13:00 +19°C° 0 mm 6 mps 748 mmHg 86%
14:00 +17°C° 0 mm 6 mps 747 mmHg 87%
15:00 +17°C° 0 mm 5 mps 747 mmHg 88%
16:00 +17°C° 0 mm 5 mps 747 mmHg 86%
17:00 +17°C° 0 mm 5 mps 747 mmHg 84%
18:00 +19°C° 0 mm 5 mps 747 mmHg 82%
19:00 +17°C° 0 mm 4 mps 748 mmHg 85%
20:00 +14°C° 0 mm 3 mps 748 mmHg 88%
21:00 +13°C° 0 mm 2 mps 748 mmHg 91%
22:00 +12°C° 0 mm 2 mps 749 mmHg 91%
23:00 +10°C° 0 mm 2 mps 749 mmHg 91%
Show more